This is the latest recevied weather packets stored in our database for station/object EA2RCU-15. If no packets are shown the sender has not sent any weather packets the latest 10 day(s).
| Time | Temp. | Humidity | Pressure | Rain* | Wind** | Luminosity | Snow |
|---|---|---|---|---|---|---|---|
| 1777915805 | 20° C | 40% | 997 hPa | 0 mm | - | - | - |
| 1777915505 | 17.78° C | 41% | 997 hPa | 0 mm | - | - | - |
| 1777915205 | 18.33° C | 41% | 997 hPa | 0 mm | - | - | - |
| 1777914905 | 17.22° C | 43% | 997 hPa | 0 mm | - | - | - |
| 1777914605 | 17.78° C | 40% | 997 hPa | 0 mm | - | - | - |
| 1777914305 | 18.33° C | 38% | 997 hPa | 0 mm | - | - | - |
| 1777914005 | 18.33° C | 38% | 997 hPa | 0 mm | - | - | - |
| 1777913705 | 18.33° C | 38% | 997 hPa | 0 mm | - | - | - |
| 1777913405 | 18.33° C | 39% | 997 hPa | 0 mm | - | - | - |
| 1777913105 | 18.33° C | 40% | 997 hPa | 0 mm | - | - | - |
| 1777912805 | 17.78° C | 39% | 997 hPa | 0 mm | - | - | - |
| 1777912505 | 17.78° C | 39% | 997 hPa | 0 mm | - | - | - |
| 1777912205 | 17.78° C | 38% | 997 hPa | 0 mm | - | - | - |
| 1777911904 | 18.33° C | 38% | 996 hPa | 0 mm | - | - | - |
| 1777911605 | 18.33° C | 37% | 996 hPa | 0 mm | - | - | - |
| 1777911305 | 18.33° C | 37% | 996 hPa | 0 mm | - | - | - |
| 1777911005 | 17.78° C | 39% | 997 hPa | 0 mm | - | - | - |
| 1777910705 | 17.78° C | 40% | 997 hPa | 0 mm | - | - | - |
| 1777910405 | 17.78° C | 42% | 997 hPa | 0 mm | - | - | - |
| 1777910105 | 17.78° C | 38% | 997 hPa | 0 mm | - | - | - |
| 1777909805 | 18.89° C | 36% | 997 hPa | 0 mm | - | - | - |
| 1777909505 | 18.89° C | 39% | 997 hPa | 0 mm | - | - | - |
| 1777909205 | 19.44° C | 39% | 997 hPa | 0 mm | - | - | - |
| 1777908905 | 20° C | 39% | 997 hPa | 0 mm | - | - | - |
| 1777908605 | 20° C | 40% | 997 hPa | 0 mm | - | - | - |
* Rain latest hour (hover to see other rain measurements)
** Current wind speed in m/s (hover to see current wind gust speed)